| time (UTC) | temp C | wind direction | speed KPH | gust KPH | rain 1hr cm | rain 24hr cm | rain mn cm | humidity % | barometer mb |
| 20260510034007 | 12 | 348 | 0.0 | 3.2 | 0.00 | 0.00 | 0.00 | 89 | 1010.2 |
| 20260510033504 | 12 | 348 | 0.0 | 3.2 | 0.00 | 0.00 | 0.00 | 88 | 1010.1 |
| 20260510033017 | 12 | 348 | 0.0 | 3.2 | 0.00 | 0.00 | 0.00 | 88 | 1010.2 |
| 20260510032502 | 12 | 17 | 0.0 | 3.2 | 0.00 | 0.00 | 0.00 | 88 | 1010.1 |
| 20260510032002 | 12 | 341 | 0.0 | 3.2 | 0.00 | 0.00 | 0.00 | 88 | 1010.0 |
| 20260510031504 | 12 | 341 | 0.0 | 3.2 | 0.00 | 0.00 | 0.00 | 87 | 1010.0 |
| 20260510031004 | 12 | 341 | 0.0 | 0.0 | 0.00 | 0.00 | 0.00 | 87 | 1009.9 |
| 20260510030505 | 13 | 341 | 0.0 | 3.2 | 0.00 | 0.00 | 0.00 | 86 | 1009.9 |
| 20260510030011 | 13 | 341 | 0.0 | 3.2 | 0.00 | 0.00 | 0.00 | 86 | 1009.9 |
| 20260510025505 | 13 | 341 | 0.0 | 3.2 | 0.00 | 0.00 | 0.00 | 86 | 1009.9 |
| 20260510025005 | 13 | 341 | 0.0 | 0.0 | 0.00 | 0.00 | 0.00 | 87 | 1009.9 |
| 20260510024509 | 13 | 341 | 0.0 | 0.0 | 0.00 | 0.00 | 0.00 | 86 | 1009.8 |
| 20260510024001 | 13 | 341 | 0.0 | 0.0 | 0.00 | 0.00 | 0.00 | 85 | 1009.8 |
| 20260510023501 | 13 | 341 | 0.0 | 3.2 | 0.00 | 0.00 | 0.00 | 84 | 1009.8 |
| 20260510023005 | 13 | 341 | 0.0 | 3.2 | 0.00 | 0.00 | 0.00 | 84 | 1009.6 |
| 20260510022503 | 13 | 341 | 0.0 | 3.2 | 0.00 | 0.00 | 0.00 | 83 | 1009.7 |
| 20260510022002 | 13 | 341 | 0.0 | 1.6 | 0.00 | 0.00 | 0.00 | 82 | 1009.6 |
| 20260510021511 | 14 | 341 | 0.0 | 0.0 | 0.00 | 0.00 | 0.00 | 82 | 1009.5 |
| 20260510021002 | 14 | 341 | 0.0 | 0.0 | 0.00 | 0.00 | 0.00 | 81 | 1009.5 |
| 20260510020502 | 14 | 341 | 0.0 | 3.2 | 0.00 | 0.00 | 0.00 | 80 | 1009.4 |
| 20260510020005 | 15 | 341 | 0.0 | 3.2 | 0.00 | 0.00 | 0.00 | 79 | 1009.3 |
| 20260510015503 | 15 | 341 | 0.0 | 3.2 | 0.00 | 0.00 | 0.00 | 79 | 1009.2 |
| 20260510015003 | 15 | 341 | 0.0 | 3.2 | 0.00 | 0.00 | 0.00 | 78 | 1009.2 |
| 20260510014510 | 15 | 341 | 0.0 | 3.2 | 0.00 | 0.00 | 0.00 | 78 | 1009.1 |
| 20260510014004 | 15 | 341 | 0.0 | 3.2 | 0.00 | 0.00 | 0.00 | 79 | 1009.0 |
| 20260510013504 | 15 | 341 | 0.0 | 0.0 | 0.00 | 0.00 | 0.00 | 79 | 1009.0 |
| 20260510013013 | 15 | 341 | 0.0 | 3.2 | 0.00 | 0.00 | 0.00 | 78 | 1009.0 |
| 20260510012504 | 15 | 341 | 0.0 | 3.2 | 0.00 | 0.00 | 0.00 | 77 | 1009.0 |
| 20260510012002 | 15 | 341 | 0.0 | 3.2 | 0.00 | 0.00 | 0.00 | 76 | 1008.9 |
| 20260510011505 | 15 | 341 | 0.0 | 3.2 | 0.00 | 0.00 | 0.00 | 75 | 1008.7 |
| 20260510011002 | 16 | 341 | 0.0 | 1.6 | 0.00 | 0.00 | 0.00 | 74 | 1008.7 |
| 20260510010502 | 16 | 341 | 0.0 | 0.0 | 0.00 | 0.00 | 0.00 | 72 | 1008.6 |
| 20260510010005 | 16 | 341 | 0.0 | 1.6 | 0.00 | 0.00 | 0.00 | 70 | 1008.5 |
| 20260510005504 | 17 | 341 | 0.0 | 3.2 | 0.00 | 0.00 | 0.00 | 70 | 1008.3 |
| 20260510005003 | 17 | 341 | 0.0 | 3.2 | 0.00 | 0.00 | 0.00 | 70 | 1008.2 |
| 20260510004505 | 17 | 341 | 0.0 | 3.2 | 0.00 | 0.00 | 0.00 | 69 | 1008.2 |
| 20260510004007 | 17 | 341 | 0.0 | 3.2 | 0.00 | 0.00 | 0.00 | 70 | 1008.0 |
| 20260510003504 | 17 | 341 | 0.0 | 3.2 | 0.00 | 0.00 | 0.00 | 68 | 1008.0 |
| 20260510003008 | 17 | 341 | 0.0 | 3.2 | 0.00 | 0.00 | 0.00 | 67 | 1008.1 |
| 20260510002510 | 17 | 341 | 0.0 | 3.2 | 0.00 | 0.00 | 0.00 | 67 | 1008.0 |
| 20260510002004 | 17 | 341 | 0.0 | 3.2 | 0.00 | 0.00 | 0.00 | 67 | 1008.1 |
| 20260510001514 | 18 | 341 | 0.0 | 3.2 | 0.00 | 0.00 | 0.00 | 66 | 1008.0 |
| 20260510001007 | 18 | 341 | 0.0 | 3.2 | 0.00 | 0.00 | 0.00 | 66 | 1008.1 |
| 20260510000501 | 18 | 341 | 0.0 | 3.2 | 0.00 | 0.00 | 0.00 | 67 | 1008.0 |
| 20260510000008 | 18 | 341 | 0.0 | 3.2 | 0.00 | 0.00 | 0.00 | 65 | 1008.0 |
| 20260509235502 | 18 | 305 | 0.0 | 3.2 | 0.00 | 0.00 | 0.00 | 65 | 1008.1 |
| 20260509235008 | 18 | 351 | 0.0 | 3.2 | 0.00 | 0.00 | 0.00 | 64 | 1008.0 |
| 20260509234507 | 19 | 351 | 0.0 | 3.2 | 0.00 | 0.00 | 0.00 | 64 | 1008.0 |
| 20260509234007 | 19 | 237 | 0.0 | 3.2 | 0.00 | 0.00 | 0.00 | 63 | 1007.8 |
| 20260509233504 | 20 | 237 | 0.0 | 3.2 | 0.00 | 0.00 | 0.00 | 61 | 1007.9 |
| 20260509233005 | 20 | 237 | 0.0 | 3.2 | 0.00 | 0.00 | 0.00 | 60 | 1007.8 |
| 20260509232507 | 20 | 237 | 0.0 | 3.2 | 0.00 | 0.00 | 0.00 | 58 | 1007.8 |
| 20260509232005 | 20 | 52 | 0.0 | 3.2 | 0.00 | 0.00 | 0.00 | 57 | 1007.8 |
| 20260509231511 | 21 | 48 | 0.0 | 3.2 | 0.00 | 0.00 | 0.00 | 57 | 1007.6 |
| 20260509231004 | 21 | 46 | 0.0 | 3.2 | 0.00 | 0.00 | 0.00 | 56 | 1007.7 |
| 20260509230505 | 21 | 46 | 0.0 | 3.2 | 0.00 | 0.00 | 0.00 | 55 | 1007.7 |
| 20260509230016 | 21 | 46 | 0.0 | 3.2 | 0.00 | 0.00 | 0.00 | 56 | 1007.8 |
| 20260509225506 | 21 | 46 | 0.0 | 3.2 | 0.00 | 0.00 | 0.00 | 52 | 1007.7 |
| 20260509225006 | 21 | 49 | 0.0 | 3.2 | 0.00 | 0.00 | 0.00 | 55 | 1007.6 |
| 20260509224504 | 21 | 55 | 0.0 | 3.2 | 0.00 | 0.00 | 0.00 | 56 | 1007.6 |
| 20260509224003 | 21 | 100 | 0.0 | 3.2 | 0.00 | 0.00 | 0.00 | 52 | 1007.6 |
| 20260509223504 | 22 | 143 | 0.0 | 3.2 | 0.00 | 0.00 | 0.00 | 53 | 1007.5 |
| 20260509223005 | 22 | 143 | 0.0 | 3.2 | 0.00 | 0.00 | 0.00 | 51 | 1007.7 |
| 20260509222503 | 22 | 113 | 1.6 | 4.8 | 0.00 | 0.00 | 0.00 | 51 | 1007.8 |
| 20260509222006 | 22 | 61 | 1.6 | 6.4 | 0.00 | 0.00 | 0.00 | 54 | 1007.8 |
| 20260509221529 | 22 | 133 | 3.2 | 6.4 | 0.00 | 0.00 | 0.00 | 53 | 1007.7 |
| 20260509221005 | 21 | 28 | 0.0 | 3.2 | 0.00 | 0.00 | 0.00 | 53 | 1007.7 |
| 20260509220504 | 21 | 26 | 0.0 | 3.2 | 0.00 | 0.00 | 0.00 | 54 | 1007.7 |
| 20260509220025 | 21 | 28 | 1.6 | 3.2 | 0.00 | 0.00 | 0.00 | 52 | 1007.7 |
| 20260509215507 | 21 | 180 | 0.0 | 3.2 | 0.00 | 0.00 | 0.00 | 52 | 1007.7 |
| 20260509215011 | 21 | 262 | 0.0 | 4.8 | 0.00 | 0.00 | 0.00 | 50 | 1007.7 |
| 20260509214518 | 22 | 261 | 1.6 | 4.8 | 0.00 | 0.00 | 0.00 | 50 | 1007.7 |
| 20260509214010 | 22 | 240 | 1.6 | 3.2 | 0.00 | 0.00 | 0.00 | 50 | 1007.7 |
| 20260509213507 | 22 | 236 | 0.0 | 3.2 | 0.00 | 0.00 | 0.00 | 51 | 1007.6 |
| 20260509213024 | 21 | 180 | 1.6 | 3.2 | 0.00 | 0.00 | 0.00 | 51 | 1007.5 |
| 20260509212503 | 21 | 122 | 1.6 | 3.2 | 0.00 | 0.00 | 0.00 | 51 | 1007.6 |
| 20260509212008 | 21 | 202 | 0.0 | 3.2 | 0.00 | 0.00 | 0.00 | 55 | 1007.5 |
| 20260509211514 | 21 | 202 | 0.0 | 3.2 | 0.00 | 0.00 | 0.00 | 51 | 1007.4 |
| 20260509211007 | 21 | 214 | 0.0 | 3.2 | 0.00 | 0.00 | 0.00 | 54 | 1007.6 |
| 20260509210504 | 21 | 171 | 0.0 | 4.8 | 0.00 | 0.00 | 0.00 | 54 | 1007.5 |
| 20260509210015 | 21 | 305 | 1.6 | 6.4 | 0.00 | 0.00 | 0.00 | 54 | 1007.6 |
| 20260509205505 | 21 | 232 | 1.6 | 6.4 | 0.00 | 0.00 | 0.00 | 52 | 1007.6 |
| 20260509205007 | 21 | 113 | 3.2 | 11.3 | 0.00 | 0.00 | 0.00 | 52 | 1007.5 |
| 20260509204518 | 21 | 192 | 3.2 | 11.3 | 0.00 | 0.00 | 0.00 | 53 | 1007.4 |
| 20260509204012 | 21 | 198 | 3.2 | 8.0 | 0.00 | 0.00 | 0.00 | 52 | 1007.4 |
| 20260509203507 | 21 | 178 | 3.2 | 9.7 | 0.00 | 0.00 | 0.00 | 52 | 1007.3 |
| 20260509203024 | 21 | 225 | 3.2 | 12.9 | 0.00 | 0.00 | 0.00 | 51 | 1007.3 |
| 20260509202511 | 21 | 223 | 4.8 | 12.9 | 0.00 | 0.00 | 0.00 | 50 | 1007.3 |
| 20260509202015 | 21 | 131 | 3.2 | 9.7 | 0.00 | 0.00 | 0.00 | 54 | 1007.3 |
| 20260509201527 | 21 | 120 | 3.2 | 16.1 | 0.00 | 0.00 | 0.00 | 51 | 1007.3 |
| 20260509201003 | 21 | 135 | 3.2 | 16.1 | 0.00 | 0.00 | 0.00 | 50 | 1007.3 |
| 20260509200504 | 21 | 206 | 4.8 | 14.5 | 0.00 | 0.00 | 0.00 | 49 | 1007.4 |
| 20260509200011 | 22 | 167 | 8.0 | 14.5 | 0.00 | 0.00 | 0.00 | 49 | 1007.5 |
| 20260509195505 | 22 | 180 | 6.4 | 12.9 | 0.00 | 0.00 | 0.00 | 50 | 1007.6 |
| 20260509195005 | 22 | 227 | 6.4 | 12.9 | 0.00 | 0.00 | 0.00 | 49 | 1007.6 |
| 20260509194516 | 22 | 190 | 8.0 | 12.9 | 0.00 | 0.00 | 0.00 | 50 | 1007.6 |
| 20260509194009 | 21 | 169 | 3.2 | 12.9 | 0.00 | 0.00 | 0.00 | 50 | 1007.6 |
| 20260509193505 | 21 | 302 | 3.2 | 12.9 | 0.00 | 0.00 | 0.00 | 49 | 1007.7 |
| 20260509193020 | 22 | 130 | 6.4 | 11.3 | 0.00 | 0.00 | 0.00 | 51 | 1007.9 |
| 20260509192508 | 22 | 230 | 3.2 | 19.3 | 0.00 | 0.00 | 0.00 | 50 | 1007.8 |
| 20260509192008 | 21 | 66 | 4.8 | 19.3 | 0.00 | 0.00 | 0.00 | 51 | 1007.8 |
| 20260509191525 | 21 | 119 | 6.4 | 17.7 | 0.00 | 0.00 | 0.00 | 51 | 1007.9 |
| 20260509191006 | 21 | 127 | 9.7 | 17.7 | 0.00 | 0.00 | 0.00 | 51 | 1008.0 |
| 20260509190508 | 21 | 198 | 3.2 | 14.5 | 0.00 | 0.00 | 0.00 | 52 | 1008.2 |
| 20260509190025 | 21 | 196 | 4.8 | 14.5 | 0.00 | 0.00 | 0.00 | 53 | 1008.3 |
| 20260509185508 | 21 | 168 | 6.4 | 14.5 | 0.00 | 0.00 | 0.00 | 57 | 1008.3 |
| 20260509185006 | 21 | 144 | 3.2 | 12.9 | 0.00 | 0.00 | 0.00 | 59 | 1008.3 |
| 20260509184517 | 21 | 116 | 3.2 | 12.9 | 0.00 | 0.00 | 0.00 | 56 | 1008.5 |
| 20260509184005 | 20 | 156 | 6.4 | 12.9 | 0.00 | 0.00 | 0.00 | 54 | 1008.5 |
| 20260509183503 | 20 | 150 | 3.2 | 12.9 | 0.00 | 0.00 | 0.00 | 55 | 1008.7 |
| 20260509183018 | 20 | 198 | 4.8 | 9.7 | 0.00 | 0.00 | 0.00 | 57 | 1008.8 |
| 20260509182506 | 20 | 196 | 1.6 | 9.7 | 0.00 | 0.00 | 0.00 | 58 | 1009.0 |
| 20260509182002 | 20 | 207 | 1.6 | 6.4 | 0.00 | 0.00 | 0.00 | 58 | 1008.9 |
| 20260509181503 | 19 | 214 | 1.6 | 6.4 | 0.00 | 0.00 | 0.00 | 55 | 1008.8 |
| 20260509181003 | 19 | 215 | 1.6 | 8.0 | 0.00 | 0.00 | 0.00 | 57 | 1009.0 |
| 20260509180504 | 19 | 121 | 3.2 | 8.0 | 0.00 | 0.00 | 0.00 | 58 | 1008.9 |
| 20260509180003 | 18 | 96 | 3.2 | 6.4 | 0.00 | 0.00 | 0.00 | 58 | 1008.8 |
| 20260509175502 | 18 | 121 | 0.0 | 6.4 | 0.00 | 0.00 | 0.00 | 56 | 1008.8 |
| 20260509175002 | 18 | 140 | 1.6 | 4.8 | 0.00 | 0.00 | 0.00 | 57 | 1009.3 |
| 20260509174505 | 18 | 135 | 1.6 | 3.2 | 0.00 | 0.00 | 0.00 | 57 | 1009.4 |
| 20260509174002 | 19 | 202 | 1.6 | 4.8 | 0.00 | 0.00 | 0.00 | 54 | 1009.6 |
| 20260509173504 | 19 | 215 | 1.6 | 4.8 | 0.00 | 0.00 | 0.00 | 57 | 1009.6 |
| 20260509173009 | 19 | 239 | 1.6 | 8.0 | 0.00 | 0.00 | 0.00 | 55 | 1009.7 |
| 20260509172502 | 18 | 340 | 1.6 | 8.0 | 0.00 | 0.00 | 0.00 | 56 | 1009.8 |
| 20260509172002 | 18 | 182 | 4.8 | 9.7 | 0.00 | 0.00 | 0.00 | 56 | 1009.9 |
| 20260509171510 | 19 | 132 | 3.2 | 9.7 | 0.00 | 0.00 | 0.00 | 53 | 1009.9 |
| 20260509171003 | 19 | 173 | 0.0 | 6.4 | 0.00 | 0.00 | 0.00 | 58 | 1010.0 |
| 20260509170504 | 18 | 243 | 1.6 | 8.0 | 0.00 | 0.00 | 0.00 | 55 | 1009.9 |
| 20260509170013 | 18 | 234 | 3.2 | 12.9 | 0.00 | 0.00 | 0.00 | 55 | 1009.9 |
| 20260509165502 | 19 | 265 | 6.4 | 12.9 | 0.00 | 0.00 | 0.00 | 55 | 1009.8 |
| 20260509165002 | 18 | 308 | 1.6 | 8.0 | 0.00 | 0.00 | 0.00 | 59 | 1009.9 |
| 20260509164506 | 18 | 208 | 3.2 | 6.4 | 0.00 | 0.00 | 0.00 | 56 | 1009.9 |
| 20260509164003 | 18 | 225 | 1.6 | 11.3 | 0.00 | 0.00 | 0.00 | 57 | 1010.0 |
| 20260509163504 | 18 | 277 | 4.8 | 11.3 | 0.00 | 0.00 | 0.00 | 56 | 1010.1 |
| 20260509163002 | 17 | 105 | 1.6 | 11.3 | 0.00 | 0.00 | 0.00 | 57 | 1010.2 |
| 20260509162502 | 18 | 227 | 3.2 | 11.3 | 0.00 | 0.00 | 0.00 | 56 | 1010.2 |
| 20260509162002 | 18 | 180 | 4.8 | 11.3 | 0.00 | 0.00 | 0.00 | 58 | 1010.0 |
| 20260509161503 | 18 | 137 | 4.8 | 11.3 | 0.00 | 0.00 | 0.00 | 59 | 1010.2 |
| 20260509161005 | 18 | 201 | 3.2 | 12.9 | 0.00 | 0.00 | 0.00 | 60 | 1010.3 |
| 20260509160503 | 18 | 187 | 6.4 | 12.9 | 0.00 | 0.00 | 0.00 | 56 | 1010.3 |
| 20260509160004 | 17 | 209 | 1.6 | 11.3 | 0.00 | 0.00 | 0.00 | 56 | 1010.0 |
| 20260509155502 | 17 | 182 | 4.8 | 11.3 | 0.00 | 0.00 | 0.00 | 58 | 1010.1 |
| 20260509155005 | 17 | 153 | 4.8 | 9.7 | 0.00 | 0.00 | 0.00 | 56 | 1010.1 |
| 20260509154505 | 17 | 220 | 3.2 | 11.3 | 0.00 | 0.00 | 0.00 | 56 | 1010.1 |
| 20260509154003 | 17 | 103 | 6.4 | 11.3 | 0.00 | 0.00 | 0.00 | 55 | 1010.1 |
| 20260509153502 | 18 | 185 | 3.2 | 9.7 | 0.00 | 0.00 | 0.00 | 60 | 1010.0 |
| 20260509153009 | 17 | 247 | 3.2 | 9.7 | 0.00 | 0.00 | 0.00 | 57 | 1009.9 |
| 20260509152504 | 17 | 150 | 1.6 | 9.7 | 0.00 | 0.00 | 0.00 | 57 | 1010.0 |
| 20260509152004 | 17 | 90 | 1.6 | 9.7 | 0.00 | 0.00 | 0.00 | 58 | 1010.1 |
| 20260509151508 | 17 | 154 | 4.8 | 9.7 | 0.00 | 0.00 | 0.00 | 57 | 1010.0 |
| 20260509151006 | 16 | 24 | 1.6 | 11.3 | 0.00 | 0.00 | 0.00 | 58 | 1010.0 |
| 20260509150502 | 17 | 168 | 3.2 | 11.3 | 0.00 | 0.00 | 0.00 | 58 | 1010.1 |
| 20260509150005 | 17 | 124 | 1.6 | 6.4 | 0.00 | 0.00 | 0.00 | 59 | 1010.1 |
| 20260509145503 | 17 | 225 | 3.2 | 6.4 | 0.00 | 0.00 | 0.00 | 58 | 1010.2 |
| 20260509145003 | 17 | 303 | 0.0 | 4.8 | 0.00 | 0.00 | 0.00 | 60 | 1010.2 |
| 20260509144504 | 16 | 284 | 0.0 | 6.4 | 0.00 | 0.00 | 0.00 | 58 | 1010.2 |
| 20260509144003 | 16 | 233 | 4.8 | 9.7 | 0.00 | 0.00 | 0.00 | 59 | 1010.3 |
| 20260509143506 | 16 | 104 | 1.6 | 9.7 | 0.00 | 0.00 | 0.00 | 59 | 1010.5 |
| 20260509143012 | 16 | 207 | 3.2 | 6.4 | 0.00 | 0.00 | 0.00 | 60 | 1010.5 |
| 20260509142503 | 16 | 309 | 0.0 | 4.8 | 0.00 | 0.00 | 0.00 | 59 | 1010.5 |
| 20260509142004 | 15 | 273 | 0.0 | 8.0 | 0.00 | 0.00 | 0.00 | 63 | 1010.5 |
| 20260509141512 | 15 | 154 | 0.0 | 8.0 | 0.00 | 0.00 | 0.00 | 62 | 1010.6 |
| 20260509141006 | 15 | 216 | 1.6 | 8.0 | 0.00 | 0.00 | 0.00 | 60 | 1010.7 |
| 20260509140507 | 14 | 205 | 3.2 | 8.0 | 0.00 | 0.00 | 0.00 | 62 | 1010.8 |
| 20260509140014 | 14 | 222 | 1.6 | 8.0 | 0.00 | 0.00 | 0.00 | 63 | 1010.9 |
| 20260509135503 | 13 | 274 | 4.8 | 9.7 | 0.00 | 0.00 | 0.00 | 62 | 1010.9 |
| 20260509135004 | 14 | 268 | 4.8 | 11.3 | 0.00 | 0.00 | 0.00 | 64 | 1010.9 |
| 20260509134503 | 13 | 116 | 4.8 | 11.3 | 0.00 | 0.00 | 0.00 | 63 | 1010.9 |
| 20260509134006 | 13 | 198 | 3.2 | 9.7 | 0.00 | 0.00 | 0.00 | 67 | 1010.8 |
| 20260509133504 | 13 | 226 | 3.2 | 8.0 | 0.00 | 0.00 | 0.00 | 66 | 1010.8 |
| 20260509133007 | 13 | 227 | 0.0 | 6.4 | 0.00 | 0.00 | 0.00 | 67 | 1010.8 |
| 20260509132504 | 12 | 130 | 4.8 | 6.4 | 0.00 | 0.00 | 0.00 | 67 | 1010.8 |
| 20260509132003 | 12 | 167 | 0.0 | 6.4 | 0.00 | 0.00 | 0.00 | 68 | 1010.7 |
| 20260509131510 | 12 | 159 | 1.6 | 6.4 | 0.00 | 0.00 | 0.00 | 67 | 1010.6 |
| 20260509131004 | 12 | 208 | 1.6 | 3.2 | 0.00 | 0.00 | 0.00 | 68 | 1010.7 |
| 20260509130506 | 12 | 83 | 0.0 | 3.2 | 0.00 | 0.00 | 0.00 | 68 | 1010.7 |
| 20260509130045 | 12 | 202 | 1.6 | 3.2 | 0.00 | 0.00 | 0.00 | 68 | 1010.8 |
| 20260509125505 | 12 | 210 | 1.6 | 8.0 | 0.00 | 0.00 | 0.00 | 69 | 1010.8 |
| 20260509125004 | 12 | 192 | 1.6 | 8.0 | 0.00 | 0.00 | 0.00 | 69 | 1010.7 |
| 20260509124529 | 12 | 188 | 1.6 | 6.4 | 0.00 | 0.00 | 0.00 | 69 | 1010.8 |
| 20260509124005 | 12 | 182 | 1.6 | 6.4 | 0.00 | 0.00 | 0.00 | 68 | 1010.8 |
| 20260509123504 | 12 | 212 | 0.0 | 3.2 | 0.00 | 0.00 | 0.00 | 68 | 1010.8 |
| 20260509123004 | 12 | 105 | 1.6 | 4.8 | 0.00 | 0.00 | 0.00 | 68 | 1010.9 |
| 20260509122505 | 12 | 157 | 0.0 | 4.8 | 0.00 | 0.00 | 0.00 | 68 | 1010.8 |
| 20260509122003 | 12 | 103 | 1.6 | 4.8 | 0.00 | 0.00 | 0.00 | 68 | 1010.7 |
| 20260509121509 | 12 | 136 | 1.6 | 6.4 | 0.00 | 0.00 | 0.00 | 67 | 1010.7 |
| 20260509121004 | 11 | 123 | 0.0 | 6.4 | 0.00 | 0.00 | 0.00 | 68 | 1010.7 |
| 20260509120506 | 11 | 122 | 1.6 | 6.4 | 0.00 | 0.00 | 0.00 | 68 | 1010.8 |
| 20260509120016 | 11 | 144 | 3.2 | 6.4 | 0.00 | 0.00 | 0.00 | 68 | 1010.7 |
| 20260509115507 | 11 | 104 | 1.6 | 8.0 | 0.00 | 0.00 | 0.00 | 70 | 1010.7 |
| 20260509115009 | 11 | 104 | 3.2 | 8.0 | 0.00 | 0.00 | 0.00 | 70 | 1010.6 |
| 20260509114519 | 11 | 117 | 4.8 | 8.0 | 0.00 | 0.00 | 0.00 | 70 | 1010.6 |
| 20260509114007 | 11 | 138 | 3.2 | 8.0 | 0.00 | 0.00 | 0.00 | 71 | 1010.5 |
| 20260509113508 | 11 | 113 | 1.6 | 6.4 | 0.00 | 0.00 | 0.00 | 71 | 1010.5 |
| 20260509113022 | 11 | 113 | 3.2 | 6.4 | 0.00 | 0.00 | 0.00 | 70 | 1010.5 |
| 20260509112508 | 11 | 131 | 1.6 | 4.8 | 0.00 | 0.00 | 0.00 | 72 | 1010.4 |
| 20260509112007 | 11 | 125 | 1.6 | 4.8 | 0.00 | 0.00 | 0.00 | 71 | 1010.4 |
| 20260509111506 | 11 | 174 | 0.0 | 3.2 | 0.00 | 0.00 | 0.00 | 71 | 1010.3 |
| 20260509111004 | 11 | 20 | 0.0 | 3.2 | 0.00 | 0.00 | 0.00 | 71 | 1010.2 |
| 20260509110506 | 11 | 31 | 0.0 | 3.2 | 0.00 | 0.00 | 0.00 | 70 | 1010.2 |
| 20260509110011 | 11 | 82 | 0.0 | 3.2 | 0.00 | 0.00 | 0.00 | 71 | 1010.3 |
| 20260509105505 | 11 | 17 | 0.0 | 3.2 | 0.00 | 0.00 | 0.00 | 72 | 1010.3 |
| 20260509105007 | 11 | 102 | 0.0 | 3.2 | 0.00 | 0.00 | 0.00 | 69 | 1010.3 |
| 20260509104517 | 11 | 92 | 0.0 | 3.2 | 0.00 | 0.00 | 0.00 | 67 | 1010.2 |
| 20260509104007 | 11 | 313 | 0.0 | 3.2 | 0.00 | 0.00 | 0.00 | 67 | 1010.3 |
| 20260509103506 | 11 | 313 | 0.0 | 3.2 | 0.00 | 0.00 | 0.00 | 67 | 1010.3 |
| 20260509103022 | 11 | 188 | 0.0 | 1.6 | 0.00 | 0.00 | 0.00 | 65 | 1010.4 |
| 20260509102509 | 11 | 188 | 0.0 | 3.2 | 0.00 | 0.00 | 0.00 | 63 | 1010.3 |
| 20260509102007 | 11 | 188 | 0.0 | 3.2 | 0.00 | 0.00 | 0.00 | 64 | 1010.4 |
| 20260509101533 | 11 | 188 | 0.0 | 3.2 | 0.00 | 0.00 | 0.00 | 64 | 1010.4 |
| 20260509101010 | 11 | 139 | 0.0 | 3.2 | 0.00 | 0.00 | 0.00 | 63 | 1010.5 |
| 20260509100507 | 11 | 223 | 0.0 | 3.2 | 0.00 | 0.00 | 0.00 | 63 | 1010.5 |
| 20260509100027 | 11 | 213 | 0.0 | 3.2 | 0.00 | 0.00 | 0.00 | 63 | 1010.4 |
| 20260509095504 | 11 | 192 | 1.6 | 4.8 | 0.00 | 0.00 | 0.00 | 63 | 1010.3 |
| 20260509095005 | 12 | 211 | 1.6 | 6.4 | 0.00 | 0.00 | 0.00 | 62 | 1010.4 |
| 20260509094520 | 12 | 181 | 3.2 | 6.4 | 0.00 | 0.00 | 0.00 | 62 | 1010.6 |
| 20260509094004 | 12 | 226 | 1.6 | 4.8 | 0.00 | 0.00 | 0.00 | 62 | 1010.6 |
| 20260509093506 | 12 | 171 | 1.6 | 4.8 | 0.00 | 0.00 | 0.00 | 61 | 1010.5 |
| 20260509093020 | 12 | 200 | 0.0 | 4.8 | 0.00 | 0.00 | 0.00 | 61 | 1010.4 |
| 20260509092503 | 12 | 185 | 0.0 | 4.8 | 0.00 | 0.00 | 0.00 | 61 | 1010.4 |
| 20260509092002 | 12 | 178 | 0.0 | 4.8 | 0.00 | 0.00 | 0.00 | 61 | 1010.3 |
| 20260509091506 | 12 | 159 | 0.0 | 6.4 | 0.00 | 0.00 | 0.00 | 60 | 1010.4 |
| 20260509091004 | 12 | 182 | 3.2 | 6.4 | 0.00 | 0.00 | 0.00 | 60 | 1010.5 |
| 20260509090504 | 12 | 186 | 0.0 | 6.4 | 0.00 | 0.00 | 0.00 | 60 | 1010.6 |
| 20260509090008 | 12 | 192 | 1.6 | 6.4 | 0.00 | 0.00 | 0.00 | 59 | 1010.6 |
| 20260509085503 | 12 | 183 | 1.6 | 6.4 | 0.00 | 0.00 | 0.00 | 59 | 1010.7 |
| 20260509085007 | 12 | 203 | 1.6 | 6.4 | 0.00 | 0.00 | 0.00 | 59 | 1010.7 |
| 20260509084512 | 12 | 220 | 1.6 | 6.4 | 0.00 | 0.00 | 0.00 | 60 | 1010.7 |
| 20260509084005 | 12 | 198 | 1.6 | 6.4 | 0.00 | 0.00 | 0.00 | 59 | 1010.7 |
| 20260509083505 | 12 | 197 | 1.6 | 6.4 | 0.00 | 0.00 | 0.00 | 61 | 1010.7 |
| 20260509083017 | 12 | 148 | 1.6 | 4.8 | 0.00 | 0.00 | 0.00 | 61 | 1010.7 |
| 20260509082509 | 12 | 182 | 0.0 | 8.0 | 0.00 | 0.00 | 0.00 | 60 | 1010.8 |
| 20260509082006 | 12 | 146 | 1.6 | 8.0 | 0.00 | 0.00 | 0.00 | 59 | 1010.8 |
| 20260509081505 | 12 | 184 | 1.6 | 6.4 | 0.00 | 0.00 | 0.00 | 60 | 1010.8 |
| 20260509081002 | 12 | 150 | 0.0 | 4.8 | 0.00 | 0.00 | 0.00 | 62 | 1010.8 |
| 20260509080502 | 12 | 177 | 0.0 | 4.8 | 0.00 | 0.00 | 0.00 | 61 | 1010.8 |
| 20260509080005 | 12 | 245 | 1.6 | 6.4 | 0.00 | 0.00 | 0.00 | 60 | 1010.8 |
| 20260509075504 | 12 | 221 | 1.6 | 9.7 | 0.00 | 0.00 | 0.00 | 60 | 1010.8 |
| 20260509075006 | 12 | 161 | 3.2 | 9.7 | 0.00 | 0.00 | 0.00 | 61 | 1010.9 |
| 20260509074508 | 11 | 212 | 1.6 | 9.7 | 0.00 | 0.00 | 0.00 | 62 | 1010.9 |
| 20260509074003 | 11 | 202 | 1.6 | 3.2 | 0.00 | 0.00 | 0.00 | 65 | 1011.1 |
| 20260509073505 | 11 | 192 | 0.0 | 3.2 | 0.00 | 0.00 | 0.00 | 65 | 1011.0 |
| 20260509073015 | 11 | 250 | 0.0 | 3.2 | 0.00 | 0.00 | 0.00 | 65 | 1010.9 |
| 20260509072506 | 11 | 156 | 0.0 | 3.2 | 0.00 | 0.00 | 0.00 | 65 | 1010.9 |
| 20260509072006 | 11 | 121 | 0.0 | 3.2 | 0.00 | 0.00 | 0.00 | 63 | 1010.9 |
| 20260509071520 | 11 | 124 | 0.0 | 3.2 | 0.00 | 0.00 | 0.00 | 63 | 1011.0 |
| 20260509071009 | 11 | 138 | 1.6 | 3.2 | 0.00 | 0.00 | 0.00 | 61 | 1010.9 |
| 20260509070508 | 11 | 117 | 1.6 | 3.2 | 0.00 | 0.00 | 0.00 | 62 | 1010.9 |
| 20260509070004 | 11 | 125 | 1.6 | 3.2 | 0.00 | 0.00 | 0.00 | 62 | 1011.0 |
| 20260509065502 | 11 | 123 | 0.0 | 3.2 | 0.00 | 0.00 | 0.00 | 63 | 1010.9 |
| 20260509065004 | 11 | 126 | 1.6 | 3.2 | 0.00 | 0.00 | 0.00 | 61 | 1011.1 |
| 20260509064508 | 11 | 130 | 1.6 | 3.2 | 0.00 | 0.00 | 0.00 | 62 | 1011.0 |
| 20260509064007 | 11 | 120 | 0.0 | 3.2 | 0.00 | 0.00 | 0.00 | 63 | 1011.0 |
| 20260509063502 | 11 | 116 | 0.0 | 3.2 | 0.00 | 0.00 | 0.00 | 64 | 1011.2 |
| 20260509063011 | 11 | 116 | 0.0 | 3.2 | 0.00 | 0.00 | 0.00 | 63 | 1011.1 |
| 20260509062509 | 12 | 116 | 1.6 | 3.2 | 0.00 | 0.00 | 0.00 | 60 | 1011.2 |
| 20260509062008 | 12 | 131 | 0.0 | 3.2 | 0.00 | 0.00 | 0.00 | 61 | 1011.1 |
| 20260509061520 | 12 | 131 | 1.6 | 3.2 | 0.00 | 0.00 | 0.00 | 62 | 1011.1 |
| 20260509061008 | 12 | 127 | 1.6 | 3.2 | 0.00 | 0.00 | 0.00 | 60 | 1011.3 |
| 20260509060505 | 12 | 136 | 0.0 | 3.2 | 0.00 | 0.00 | 0.00 | 61 | 1011.3 |
| 20260509060023 | 12 | 138 | 0.0 | 3.2 | 0.00 | 0.00 | 0.00 | 61 | 1011.3 |
| 20260509055508 | 12 | 111 | 0.0 | 3.2 | 0.00 | 0.00 | 0.00 | 62 | 1011.3 |
| 20260509055006 | 12 | 111 | 0.0 | 3.2 | 0.00 | 0.00 | 0.00 | 60 | 1011.4 |
| 20260509054524 | 12 | 138 | 0.0 | 3.2 | 0.00 | 0.00 | 0.00 | 62 | 1011.4 |
| 20260509054006 | 12 | 138 | 0.0 | 3.2 | 0.00 | 0.00 | 0.00 | 60 | 1011.4 |
| 20260509053504 | 12 | 138 | 0.0 | 4.8 | 0.00 | 0.00 | 0.00 | 60 | 1011.4 |
| 20260509053013 | 12 | 156 | 1.6 | 4.8 | 0.00 | 0.00 | 0.00 | 60 | 1011.4 |
| 20260509052503 | 11 | 105 | 0.0 | 3.2 | 0.00 | 0.00 | 0.00 | 62 | 1011.5 |
| 20260509052004 | 11 | 9 | 0.0 | 3.2 | 0.00 | 0.00 | 0.00 | 65 | 1011.4 |
| 20260509051513 | 11 | 9 | 0.0 | 3.2 | 0.00 | 0.00 | 0.00 | 66 | 1011.6 |
| 20260509051007 | 11 | 9 | 0.0 | 3.2 | 0.00 | 0.00 | 0.00 | 64 | 1011.5 |
| 20260509050512 | 12 | 9 | 0.0 | 3.2 | 0.00 | 0.00 | 0.00 | 63 | 1011.6 |
| 20260509050025 | 12 | 46 | 0.0 | 3.2 | 0.00 | 0.00 | 0.00 | 63 | 1011.5 |
| 20260509045506 | 12 | 46 | 0.0 | 3.2 | 0.00 | 0.00 | 0.00 | 64 | 1011.5 |
| 20260509045010 | 12 | 46 | 0.0 | 3.2 | 0.00 | 0.00 | 0.00 | 64 | 1011.6 |
| 20260509044524 | 12 | 71 | 0.0 | 3.2 | 0.00 | 0.00 | 0.00 | 61 | 1011.5 |
| 20260509044006 | 12 | 88 | 0.0 | 4.8 | 0.00 | 0.00 | 0.00 | 62 | 1011.4 |
| 20260509043507 | 12 | 176 | 0.0 | 4.8 | 0.00 | 0.00 | 0.00 | 58 | 1011.4 |
| 20260509043026 | 13 | 115 | 1.6 | 4.8 | 0.00 | 0.00 | 0.00 | 55 | 1011.3 |
| 20260509042504 | 13 | 127 | 1.6 | 3.2 | 0.00 | 0.00 | 0.00 | 56 | 1011.4 |
| 20260509042005 | 13 | 145 | 1.6 | 8.0 | 0.00 | 0.00 | 0.00 | 55 | 1011.3 |
| 20260509041519 | 13 | 111 | 1.6 | 8.0 | 0.00 | 0.00 | 0.00 | 55 | 1011.4 |
| 20260509041005 | 13 | 135 | 1.6 | 6.4 | 0.00 | 0.00 | 0.00 | 55 | 1011.4 |
| 20260509040509 | 13 | 130 | 1.6 | 6.4 | 0.00 | 0.00 | 0.00 | 55 | 1011.4 |
| 20260509040033 | 13 | 117 | 1.6 | 6.4 | 0.00 | 0.00 | 0.00 | 54 | 1011.5 |
| 20260509035508 | 13 | 138 | 3.2 | 6.4 | 0.00 | 0.00 | 0.00 | 54 | 1011.5 |
| 20260509035011 | 13 | 113 | 1.6 | 4.8 | 0.00 | 0.00 | 0.00 | 54 | 1011.5 |
| 20260509034520 | 13 | 147 | 1.6 | 4.8 | 0.00 | 0.00 | 0.00 | 53 | 1011.5 |